Regional Weather Roundup
Issued by NWS

Home | Current Version | Previous Version | Graphics & Text | Print | Product List | Glossary On
Versions: 1 2 3 4 5 6 7 8 9 10 11 12 13 14 15 16 17 18 19 20 21 22 23 24 25 26 27 28 29 30 31 32 33 34 35 36 37 38 39 40 41 42 43 44 45 46 47 48 49 50
000
ASUS45 KTFX 182019
RWRMT
MONTANA HOURLY WEATHER ROUNDUP
NATIONAL WEATHER SERVICE GREAT FALLS MT
219 PM MDT FRI APR 18 2014

NOTE: "FAIR" INDICATES FEW OR NO CLOUDS BELOW 12000 FEET WITH NO
SIGNIFICANT WEATHER AND/OR OBSTRUCTIONS TO VISIBILITY.

* THESE STATIONS ARE NOT UNDER NWS QUALITY CONTROL. THEY DO NOT
   REPORT WEATHER SUCH AS PRECIPITATION OR FOG.

MTZ001>007-043-182100-
WEST OF THE DIVIDE
CITY           SKY/WX    TMP DP  RH WIND       PRES   REMARKS
KALISPELL      CLOUDY    46  21  37 W16G30    29.81R
MISSOULA       PTCLDY    50  21  32 W30G40    29.89R
BUTTE          PTSUNNY   41  28  60 NW21G28   29.85R
MULLAN PASS    HVY SNOW  27  25  92 VRB7      29.87R VSB M1/4 WCI  19
* ESSEX        N/A       39  27  62 W4G12      N/A
* LINCOLN      N/A       40  14  35 SW7G24     N/A   WCI  35
* LOOKOUT PASS N/A       34  27  76 SE10G17    N/A   WCI  26
* PLAINS APT   PTCLDY    50  25  38 W17G28    29.92R
* POLSON       N/A       49  23  36 SW6G17     N/A
* SEELEY LAKE  N/A       44  13  28 W14G25     N/A
* THOMP F APT  PTCLDY    44  40  86 S11G18     N/A
$$

MTZ008-052>055-182100-
SOUTHWEST MONTANA
CITY           SKY/WX    TMP DP  RH WIND       PRES   REMARKS
BOZEMAN        PTCLDY    61  27  27 SW23G37   29.71F
DILLON         PTCLDY    57  16  20 W29G38    29.76S
W YELLOWSTONE  N/A       36  35  96 SW6G15     N/A   WCI  31
* THREE FORKS  PTCLDY    57  45  64 N/A        N/A
* BOULDER HILL N/A       36  26  67 NE10       N/A   WCI  29
* MONIDA PASS  N/A       48  29  48 S15G24     N/A
* RAYNOLDS PAS N/A       41  26  55 S20G30     N/A
* WHITEHALL    N/A       56  29  36 W16G25     N/A
* WISE RIVER   N/A       44  26  49 NW18G36    N/A
$$

MTZ009>010-012-014-046-048-049-054-182100-
EAST SLOPES AND CENTRAL MONTANA
CITY           SKY/WX    TMP DP  RH WIND       PRES   REMARKS
CUT BANK       SUNNY     50  19  29 SW41G53   29.65F
GREAT FALLS    CLOUDY    48  19  32 SW32G43   29.71R
HELENA         PTSUNNY   46  30  54 W23G31    29.82R
MALMSTROM AFB  CLOUDY    52  16  24 SW30G47   29.69R
* CONRAD       SUNNY     52  12  20 SW22G36    N/A
* DEARBORN     N/A       46  15  29 SE15G27    N/A
* EAST GLACIER N/A       32  26  79 W23G32     N/A   WCI  19
* MONARCH      N/A       46  23  40 W22G27     N/A
* PENDROY      N/A       42  20  41 W28G45     N/A
* ROGERS PASS  N/A       38  11  33 SE12G37    N/A   WCI  30
* SAINT MARY   N/A       35  21  57 SW11G23    N/A   WCI  27
* SWEET GRASS  N/A       47  22  37 W32G44     N/A
* WHITE SULPH  N/A       43  24  47 NW21G33    N/A
$$

MTZ011-013-016-021-035-040-045-047-050-051-182100-
NORTH CENTRAL MONTANA
CITY           SKY/WX    TMP DP  RH WIND       PRES   REMARKS
HAVRE          CLOUDY    61  30  31 W18G28    29.61F
LEWISTOWN      CLOUDY    54  30  40 NW9       29.68S
* CHINOOK      CLOUDY    61  28  29 W16G24    29.61F
* FORT BENTON  SUNNY     57  16  20 SW24G37   29.67R
* MALTA APT    CLOUDY    55  39  55 CALM      29.62S
* CHESTER      N/A       55  18  23 W18G33     N/A
* DENTON       N/A       56  26  32 W19G24     N/A
* GEYSER       N/A       51  26  38 W22G33     N/A
* JUDITH GAP   N/A       54  32  43 SW16G22    N/A
* LOMA         N/A       59  23  25 SW27G36    N/A
$$

MTZ017>020-022>027-061-062-182100-
NORTHEAST MONTANA
CITY           SKY/WX    TMP DP  RH WIND       PRES   REMARKS
GLASGOW        LGT RAIN  46  41  83 E5        29.66R
GLENDIVE       PTSUNNY   64  37  37 SE17G24   29.62F
JORDAN         CLOUDY    52  45  77 W16       29.67R
SIDNEY         CLOUDY    61  36  39 SE22      29.65F
WOLF POINT     CLOUDY    59  34  39 S7        29.65R
* BEAVER HILL  N/A       57  36  46 E24G33     N/A
* CIRCLE       N/A       57  38  49 SW9        N/A
* LINDSAY DVD  N/A       61  35  38 S12G20     N/A
* NAVAJO       N/A       46  31  56 SE21G27    N/A
* SACO         N/A       46  39  77 E6G11      N/A
* SCOBEY APT   CLOUDY    48  30  50 SE13G21   29.68R
$$

MTZ028>042-056>058-182100-
SOUTHCENTRAL AND SOUTHEAST MONTANA
CITY           SKY/WX    TMP DP  RH WIND       PRES   REMARKS
BAKER          PTSUNNY   66  37  34 SE25      29.63F
BILLINGS       LGT RAIN  55  39  55 W6        29.72F
LIVINGSTON     PTSUNNY   55  41  59 SW18      29.72F
MILES CITY     CLOUDY    63  37  38 W15G24    29.63R
* EKALAKA APT  PTSUNNY   66  37  34 SE16G30   29.65F
* LAUREL APT   CLOUDY    55  37  51 SW7        N/A
* ROUNDUP APT  CLOUDY    52  41  66 N/A        N/A
* HYSHAM       N/A       54  33  45 W20G29     N/A
* LAME DEER    N/A       61  33  35 NW15G20    N/A
* REED POINT   N/A       55  38  53 W14G20     N/A
* ROSCOE HILL  N/A       56  32  40 SW6G11     N/A
$$

REGIONAL REPORTS...DAKOTAS
CITY           SKY/WX    TMP DP  RH WIND       PRES   REMARKS
WILLISTON      CLOUDY    55  30  39 SE17G31   29.69F
DICKINSON      CLOUDY    55  34  45 SE26G36   29.69F
CROSBY         SUNNY     48  28  46 SE31G39   29.74F
TIOGA          PTSUNNY   48  28  46 SE25G37   29.78F
WATFORD CITY   SUNNY     55  32  42 SE23G32   29.67F
BISMARCK       PTSUNNY   59  36  42 SE28G39   29.83F
GRAND FORKS    PTSUNNY   52  27  38 SE26G32   30.13F
FARGO          PTSUNNY   54  28  37 SE22G35   30.11F
BUFFALO SD     PTSUNNY   64  37  37 SE23G30   29.60F
RAPID CITY     CLOUDY    75  36  24 S26G32    29.68F
$$

REGIONAL REPORTS...WYOMING/IDAHO/WASHINGTON
CITY           SKY/WX    TMP DP  RH WIND       PRES   REMARKS
GILLETTE       CLOUDY    70  30  23 SW25G38   29.66F
SHERIDAN       CLOUDY    57  37  47 NW26G37   29.70R
CODY           CLOUDY    61  37  41 W10G21    29.76R
YELLOWSTONE LA CLOUDY    36  30  79 W10G32    29.93R WCI  29
SALMON         PTCLDY    55  18  23 W16G23    29.84R
MULLAN PASS    HVY SNOW  27  25  92 VRB7      29.87S VSB M1/4 WCI  19
SAND POINT     N/A       46  32  58 SW12G22   29.89S
SPOKANE        PTCLDY    48  27  44 SW22G31   29.93S
$$

REGIONAL REPORTS...ALBERTA
CITY           SKY/WX    TMP DP  RH WIND       PRES   REMARKS
CALGARY        LGT SNOW  32  30  92 N13G23    29.61R VSB 3/4  WCI  22
LETHBRIDGE     LGT RAIN  46  28  50 W24G43    29.57S
MEDICINE HAT   PTSUNNY   57  34  42 W13G25    29.57S
EDMONTON       FOG       32  28  85 N12       29.70R WCI  23
WATERTON GATE  N/A       41  28  60 SW25G38    N/A
CARDSTON       N/A       46  23  40 W22G32     N/A
MILK RIVER     N/A       52  19  27 W31G38     N/A
$$

REGIONAL REPORTS...SASKATCHEWAN
CITY           SKY/WX    TMP DP  RH WIND       PRES   REMARKS
SWIFT CURRENT  CLOUDY    43  41  93 S14G20    29.60S
REGINA         LGT RAIN  36  30  79 SE25G39   29.76F WCI  24
VAL MARIE      N/A       48  36  63 S10        N/A
ASSINIBOIA     N/A       37  34  89 SE14       N/A   WCI  28
CORONACH       N/A       46  32  58 SE16       N/A

$$




USA.gov is the U.S. government's official web portal to all federal, state and local government web resources and services.